Time,TemperatureF,DewpointF,PressureIn,WindDirection,WindDirectionDegrees,WindSpeedMPH,WindSpeedGustMPH,Humidity,HourlyPrecipIn,Conditions,Clouds,dailyrainin,SoftwareType,DateUTC
2013-01-19 00:00:00,48.0,13.8,26.94,NE,45,0.0,5.0,25,0.00,,,0.00,Weather View 32 v70,2013-01-19 07:00:00,
2013-01-19 00:10:00,48.0,13.8,26.94,NNW,337,0.0,5.0,25,0.00,,,0.00,Weather View 32 v70,2013-01-19 07:10:00,
2013-01-19 00:20:00,48.0,13.8,26.94,NNE,22,0.0,5.0,25,0.00,,,0.00,Weather View 32 v70,2013-01-19 07:20:00,
2013-01-19 00:28:00,48.0,13.8,26.94,NNE,22,0.0,5.0,25,0.00,,,0.00,Weather View 32 v70,2013-01-19 07:28:00,
2013-01-19 00:40:00,47.0,13.8,26.94,NE,45,0.0,5.0,26,0.00,,,0.00,Weather View 32 v70,2013-01-19 07:40:00,
2013-01-19 00:50:00,47.0,13.8,26.94,NE,45,0.0,5.0,26,0.00,,,0.00,Weather View 32 v70,2013-01-19 07:50:00,
2013-01-19 01:00:00,47.0,14.7,26.95,NNW,337,0.0,5.0,27,0.00,,,0.00,Weather View 32 v70,2013-01-19 08:00:00,
2013-01-19 01:10:00,47.0,13.8,26.95,NNW,337,0.0,4.0,26,0.00,,,0.00,Weather View 32 v70,2013-01-19 08:10:00,
2013-01-19 01:20:00,47.0,14.7,26.95,NNW,337,0.0,4.0,27,0.00,,,0.00,Weather View 32 v70,2013-01-19 08:20:00,
2013-01-19 01:28:00,47.0,14.7,26.95,NNW,337,0.0,4.0,27,0.00,,,0.00,Weather View 32 v70,2013-01-19 08:28:00,
2013-01-19 01:40:00,46.0,13.8,26.95,SE,135,0.0,4.0,27,0.00,,,0.00,Weather View 32 v70,2013-01-19 08:40:00,
2013-01-19 01:50:00,46.0,13.8,26.95,NE,45,3.0,5.0,27,0.00,,,0.00,Weather View 32 v70,2013-01-19 08:50:00,
2013-01-19 02:00:00,47.0,13.8,26.95,ENE,67,0.0,6.0,26,0.00,,,0.00,Weather View 32 v70,2013-01-19 09:00:00,
2013-01-19 02:10:00,47.0,12.9,26.95,NE,45,0.0,6.0,25,0.00,,,0.00,Weather View 32 v70,2013-01-19 09:10:00,
2013-01-19 02:20:00,46.0,12.1,26.95,NNW,337,0.0,6.0,25,0.00,,,0.00,Weather View 32 v70,2013-01-19 09:20:00,
2013-01-19 02:29:00,46.0,12.1,26.95,NNW,337,0.0,6.0,25,0.00,,,0.00,Weather View 32 v70,2013-01-19 09:29:00,
2013-01-19 02:40:00,46.0,12.1,26.95,NW,315,0.0,6.0,25,0.00,,,0.00,Weather View 32 v70,2013-01-19 09:40:00,
2013-01-19 02:50:00,46.0,12.1,26.95,NE,45,0.0,6.0,25,0.00,,,0.00,Weather View 32 v70,2013-01-19 09:50:00,
2013-01-19 03:00:00,46.0,12.1,26.95,NE,45,0.0,3.0,25,0.00,,,0.00,Weather View 32 v70,2013-01-19 10:00:00,
2013-01-19 03:10:00,45.0,11.2,26.95,NNW,337,0.0,3.0,25,0.00,,,0.00,Weather View 32 v70,2013-01-19 10:10:00,
2013-01-19 03:20:00,45.0,11.2,26.95,SSW,202,0.0,3.0,25,0.00,,,0.00,Weather View 32 v70,2013-01-19 10:20:00,
2013-01-19 03:29:00,45.0,11.2,26.95,SSW,202,0.0,3.0,25,0.00,,,0.00,Weather View 32 v70,2013-01-19 10:29:00,
2013-01-19 03:40:00,45.0,11.2,26.95,NNE,22,1.0,4.0,25,0.00,,,0.00,Weather View 32 v70,2013-01-19 10:40:00,
2013-01-19 03:50:00,45.0,11.2,26.95,NNE,22,0.0,4.0,25,0.00,,,0.00,Weather View 32 v70,2013-01-19 10:50:00,
2013-01-19 04:00:00,45.0,11.2,26.95,ESE,112,0.0,4.0,25,0.00,,,0.00,Weather View 32 v70,2013-01-19 11:00:00,
2013-01-19 04:10:00,45.0,11.2,26.95,SE,135,0.0,4.0,25,0.00,,,0.00,Weather View 32 v70,2013-01-19 11:10:00,
2013-01-19 05:50:00,41.0,9.5,26.97,SE,135,0.0,0.0,27,0.00,,,0.00,Weather View 32 v70,2013-01-19 12:50:00,
2013-01-19 06:00:00,41.0,9.5,26.97,SE,135,0.0,0.0,27,0.00,,,0.00,Weather View 32 v70,2013-01-19 13:00:00,
2013-01-19 06:10:00,40.0,8.7,26.97,SE,135,0.0,0.0,27,0.00,,,0.00,Weather View 32 v70,2013-01-19 13:10:00,
2013-01-19 06:20:00,40.0,11.0,26.97,NE,45,0.0,0.0,30,0.00,,,0.00,Weather View 32 v70,2013-01-19 13:20:00,
2013-01-19 06:30:00,41.0,11.1,26.98,NE,45,0.0,0.0,29,0.00,,,0.00,Weather View 32 v70,2013-01-19 13:30:00,
2013-01-19 06:31:00,41.0,11.1,26.98,NE,45,0.0,0.0,29,0.00,,,0.00,Weather View 32 v70,2013-01-19 13:31:00,
2013-01-19 06:40:00,41.0,11.1,26.98,NE,45,0.0,0.0,29,0.00,,,0.00,Weather View 32 v70,2013-01-19 13:40:00,
2013-01-19 06:50:00,41.0,9.5,26.98,NE,45,0.0,0.0,27,0.00,,,0.00,Weather View 32 v70,2013-01-19 13:50:00,
2013-01-19 07:00:00,41.0,9.5,26.98,NE,45,0.0,0.0,27,0.00,,,0.00,Weather View 32 v70,2013-01-19 14:00:00,
2013-01-19 07:10:00,41.0,9.5,26.99,North,360,0.0,0.0,27,0.00,,,0.00,Weather View 32 v70,2013-01-19 14:10:00,
2013-01-19 07:20:00,41.0,9.5,26.99,North,360,0.0,0.0,27,0.00,,,0.00,Weather View 32 v70,2013-01-19 14:20:00,
2013-01-19 07:30:00,41.0,8.7,26.99,NNE,22,0.0,0.0,26,0.00,,,0.00,Weather View 32 v70,2013-01-19 14:30:00,
2013-01-19 07:40:00,41.0,9.5,27.00,North,360,0.0,0.0,27,0.00,,,0.00,Weather View 32 v70,2013-01-19 14:40:00,
2013-01-19 07:50:00,41.0,8.7,27.00,North,360,1.0,5.0,26,0.00,,,0.00,Weather View 32 v70,2013-01-19 14:50:00,
2013-01-19 08:00:00,42.0,9.6,27.00,North,360,0.0,5.0,26,0.00,,,0.00,Weather View 32 v70,2013-01-19 15:00:00,
2013-01-19 08:10:00,42.0,9.6,27.01,North,360,0.0,5.0,26,0.00,,,0.00,Weather View 32 v70,2013-01-19 15:10:00,
2013-01-19 08:20:00,42.0,10.4,27.01,North,360,0.0,5.0,27,0.00,,,0.00,Weather View 32 v70,2013-01-19 15:20:00,
2013-01-19 08:30:00,42.0,10.4,27.01,North,360,0.0,5.0,27,0.00,,,0.00,Weather View 32 v70,2013-01-19 15:30:00,
2013-01-19 08:40:00,44.0,12.9,27.00,ENE,67,0.0,5.0,28,0.00,,,0.00,Weather View 32 v70,2013-01-19 15:40:00,
2013-01-19 08:50:00,47.0,14.7,26.99,ESE,112,0.0,3.0,27,0.00,,,0.00,Weather View 32 v70,2013-01-19 15:50:00,
2013-01-19 09:00:00,49.0,13.7,26.99,SE,135,0.0,3.0,24,0.00,,,0.00,Weather View 32 v70,2013-01-19 16:00:00,
2013-01-19 09:10:00,52.0,16.3,26.98,SE,135,0.0,0.0,24,0.00,,,0.00,Weather View 32 v70,2013-01-19 16:10:00,
2013-01-19 09:20:00,55.0,18.8,26.98,SE,135,0.0,0.0,24,0.00,,,0.00,Weather View 32 v70,2013-01-19 16:20:00,
2013-01-19 09:30:00,57.0,19.5,26.98,SE,135,0.0,0.0,23,0.00,,,0.00,Weather View 32 v70,2013-01-19 16:30:00,
2013-01-19 09:40:00,59.0,20.1,26.97,SE,135,0.0,0.0,22,0.00,,,0.00,Weather View 32 v70,2013-01-19 16:40:00,
2013-01-19 09:50:00,61.0,18.4,26.97,South,180,0.0,0.0,19,0.00,,,0.00,Weather View 32 v70,2013-01-19 16:50:00,
2013-01-19 10:00:00,62.0,17.9,26.97,SE,135,0.0,0.0,18,0.00,,,0.00,Weather View 32 v70,2013-01-19 17:00:00,
2013-01-19 10:10:00,63.0,18.7,26.97,SE,135,0.0,0.0,18,0.00,,,0.00,Weather View 32 v70,2013-01-19 17:10:00,
2013-01-19 10:20:00,65.0,20.4,26.96,South,180,0.0,0.0,18,0.00,,,0.00,Weather View 32 v70,2013-01-19 17:20:00,
2013-01-19 10:30:00,66.0,21.2,26.95,SW,225,0.0,0.0,18,0.00,,,0.00,Weather View 32 v70,2013-01-19 17:30:00,
2013-01-19 10:40:00,68.0,21.5,26.95,SW,225,0.0,0.0,17,0.00,,,0.00,Weather View 32 v70,2013-01-19 17:40:00,
2013-01-19 11:00:00,71.0,19.3,26.93,SSW,202,0.0,0.0,14,0.00,,,0.00,Weather View 32 v70,2013-01-19 18:00:00,
2013-01-19 11:20:00,74.0,19.9,26.91,SSW,202,0.0,5.0,13,0.00,,,0.00,Weather View 32 v70,2013-01-19 18:20:00,
2013-01-19 11:30:00,75.0,20.7,26.90,South,180,0.0,5.0,13,0.00,,,0.00,Weather View 32 v70,2013-01-19 18:30:00,
2013-01-19 11:40:00,76.0,21.5,26.89,SSE,157,0.0,5.0,13,0.00,,,0.00,Weather View 32 v70,2013-01-19 18:40:00,
2013-01-19 11:50:00,77.0,20.4,26.89,SSE,157,0.0,5.0,12,0.00,,,0.00,Weather View 32 v70,2013-01-19 18:50:00,
2013-01-19 12:30:00,78.0,19.1,26.85,SE,135,0.0,7.0,11,0.00,,,0.00,Weather View 32 v70,2013-01-19 19:30:00,
2013-01-19 12:35:00,78.0,19.1,26.85,SE,135,0.0,7.0,11,0.00,,,0.00,Weather View 32 v70,2013-01-19 19:35:00,
2013-01-19 12:50:00,79.0,19.9,26.84,SSE,157,0.0,7.0,11,0.00,,,0.00,Weather View 32 v70,2013-01-19 19:50:00,
2013-01-19 13:20:00,81.0,19.2,26.82,WNW,292,0.0,7.0,10,0.00,,,0.00,Weather View 32 v70,2013-01-19 20:20:00,
2013-01-19 13:30:00,82.0,19.9,26.81,SE,135,3.0,6.0,10,0.00,,,0.00,Weather View 32 v70,2013-01-19 20:30:00,
2013-01-19 13:35:00,82.0,19.9,26.81,SE,135,3.0,6.0,10,0.00,,,0.00,Weather View 32 v70,2013-01-19 20:35:00,
2013-01-19 13:50:00,82.0,22.2,26.81,SSE,157,0.0,6.0,11,0.00,,,0.00,Weather View 32 v70,2013-01-19 20:50:00,
2013-01-19 14:00:00,82.0,22.2,26.80,SW,225,0.0,6.0,11,0.00,,,0.00,Weather View 32 v70,2013-01-19 21:00:00,
2013-01-19 14:36:00,84.0,23.7,26.79,SE,135,0.0,6.0,11,0.00,,,0.00,Weather View 32 v70,2013-01-19 21:36:00,
2013-01-19 14:50:00,84.0,23.7,26.79,East,90,0.0,5.0,11,0.00,,,0.00,Weather View 32 v70,2013-01-19 21:50:00,
2013-01-19 15:00:00,84.0,23.7,26.79,SW,225,0.0,5.0,11,0.00,,,0.00,Weather View 32 v70,2013-01-19 22:00:00,
2013-01-19 15:10:00,84.0,23.7,26.79,SSW,202,0.0,4.0,11,0.00,,,0.00,Weather View 32 v70,2013-01-19 22:10:00,
2013-01-19 15:20:00,84.0,23.7,26.79,SE,135,0.0,4.0,11,0.00,,,0.00,Weather View 32 v70,2013-01-19 22:20:00,
2013-01-19 15:30:00,84.0,23.7,26.79,NW,315,0.0,5.0,11,0.00,,,0.00,Weather View 32 v70,2013-01-19 22:30:00,
2013-01-19 15:50:00,82.0,22.2,26.80,South,180,0.0,5.0,11,0.00,,,0.00,Weather View 32 v70,2013-01-19 22:50:00,
2013-01-19 16:10:00,81.0,21.4,26.80,SW,225,0.0,5.0,11,0.00,,,0.00,Weather View 32 v70,2013-01-19 23:10:00,
2013-01-19 16:20:00,81.0,21.4,26.81,NW,315,0.0,5.0,11,0.00,,,0.00,Weather View 32 v70,2013-01-19 23:20:00,
2013-01-19 16:37:00,80.0,20.7,26.81,NW,315,0.0,4.0,11,0.00,,,0.00,Weather View 32 v70,2013-01-19 23:37:00,
2013-01-19 17:00:00,77.0,22.3,26.81,SW,225,0.0,4.0,13,0.00,,,0.00,Weather View 32 v70,2013-01-20 00:00:00,
2013-01-19 17:10:00,76.0,21.5,26.82,SSE,157,0.0,3.0,13,0.00,,,0.00,Weather View 32 v70,2013-01-20 00:10:00,
2013-01-19 17:20:00,75.0,20.7,26.82,East,90,0.0,3.0,13,0.00,,,0.00,Weather View 32 v70,2013-01-20 00:20:00,
2013-01-19 17:37:00,74.0,19.9,26.83,WNW,292,0.0,3.0,13,0.00,,,0.00,Weather View 32 v70,2013-01-20 00:37:00,
2013-01-19 17:50:00,70.0,20.1,26.85,NNW,337,0.0,3.0,15,0.00,,,0.00,Weather View 32 v70,2013-01-20 00:50:00,
2013-01-19 18:00:00,68.0,20.0,26.85,NE,45,2.0,7.0,16,0.00,,,0.00,Weather View 32 v70,2013-01-20 01:00:00,
2013-01-19 18:10:00,66.0,19.8,26.87,North,360,1.0,7.0,17,0.00,,,0.00,Weather View 32 v70,2013-01-20 01:10:00,
2013-01-19 18:30:00,63.0,18.7,26.87,North,360,0.0,7.0,18,0.00,,,0.00,Weather View 32 v70,2013-01-20 01:30:00,
2013-01-19 18:38:00,63.0,18.7,26.87,North,360,0.0,7.0,18,0.00,,,0.00,Weather View 32 v70,2013-01-20 01:38:00,
2013-01-19 18:50:00,61.0,19.6,26.88,North,360,0.0,7.0,20,0.00,,,0.00,Weather View 32 v70,2013-01-20 01:50:00,
2013-01-19 19:20:00,59.0,21.2,26.89,NNE,22,0.0,7.0,23,0.00,,,0.00,Weather View 32 v70,2013-01-20 02:20:00,
2013-01-19 19:30:00,58.0,20.3,26.90,North,360,3.0,7.0,23,0.00,,,0.00,Weather View 32 v70,2013-01-20 02:30:00,
2013-01-19 19:38:00,58.0,20.3,26.90,North,360,3.0,7.0,23,0.00,,,0.00,Weather View 32 v70,2013-01-20 02:38:00,
2013-01-19 20:00:00,57.0,20.5,26.91,NNE,22,1.0,7.0,24,0.00,,,0.00,Weather View 32 v70,2013-01-20 03:00:00,
2013-01-19 20:10:00,57.0,20.5,26.91,North,360,5.0,7.0,24,0.00,,,0.00,Weather View 32 v70,2013-01-20 03:10:00,
2013-01-19 20:20:00,57.0,20.5,26.91,North,360,2.0,12.0,24,0.00,,,0.00,Weather View 32 v70,2013-01-20 03:20:00,
2013-01-19 20:39:00,57.0,20.5,26.91,North,360,0.0,12.0,24,0.00,,,0.00,Weather View 32 v70,2013-01-20 03:39:00,
2013-01-19 20:50:00,56.0,19.6,26.91,NNE,22,0.0,12.0,24,0.00,,,0.00,Weather View 32 v70,2013-01-20 03:50:00,
2013-01-19 21:00:00,56.0,20.6,26.91,North,360,0.0,12.0,25,0.00,,,0.00,Weather View 32 v70,2013-01-20 04:00:00,
2013-01-19 21:10:00,55.0,19.8,26.92,NNE,22,0.0,12.0,25,0.00,,,0.00,Weather View 32 v70,2013-01-20 04:10:00,
2013-01-19 21:20:00,55.0,20.7,26.92,South,180,0.0,8.0,26,0.00,,,0.00,Weather View 32 v70,2013-01-20 04:20:00,
2013-01-19 21:30:00,55.0,20.7,26.93,NNE,22,0.0,3.0,26,0.00,,,0.00,Weather View 32 v70,2013-01-20 04:30:00,
2013-01-19 21:40:00,54.0,19.8,26.93,North,360,0.0,3.0,26,0.00,,,0.00,Weather View 32 v70,2013-01-20 04:40:00,
2013-01-19 21:50:00,54.0,19.8,26.93,North,360,0.0,0.0,26,0.00,,,0.00,Weather View 32 v70,2013-01-20 04:50:00,
2013-01-19 22:10:00,54.0,21.6,26.94,ENE,67,0.0,0.0,28,0.00,,,0.00,Weather View 32 v70,2013-01-20 05:10:00,
2013-01-19 22:20:00,54.0,21.6,26.94,ENE,67,0.0,0.0,28,0.00,,,0.00,Weather View 32 v70,2013-01-20 05:20:00,
2013-01-19 22:30:00,54.0,19.8,26.94,SE,135,0.0,0.0,26,0.00,,,0.00,Weather View 32 v70,2013-01-20 05:30:00,
2013-01-19 22:40:00,54.0,19.8,26.93,ESE,112,0.0,0.0,26,0.00,,,0.00,Weather View 32 v70,2013-01-20 05:40:00,
2013-01-19 22:50:00,54.0,19.8,26.94,ESE,112,0.0,0.0,26,0.00,,,0.00,Weather View 32 v70,2013-01-20 05:50:00,
2013-01-19 23:00:00,54.0,19.8,26.94,NE,45,0.0,0.0,26,0.00,,,0.00,Weather View 32 v70,2013-01-20 06:00:00,
2013-01-19 23:10:00,55.0,18.8,26.94,NE,45,0.0,0.0,24,0.00,,,0.00,Weather View 32 v70,2013-01-20 06:10:00,
2013-01-19 23:20:00,54.0,19.8,26.94,ENE,67,0.0,0.0,26,0.00,,,0.00,Weather View 32 v70,2013-01-20 06:20:00,
2013-01-19 23:30:00,54.0,20.7,26.94,NE,45,0.0,0.0,27,0.00,,,0.00,Weather View 32 v70,2013-01-20 06:30:00,
2013-01-19 23:40:00,53.0,20.7,26.94,NE,45,0.0,0.0,28,0.00,,,0.00,Weather View 32 v70,2013-01-20 06:40:00,
2013-01-19 23:50:00,52.0,20.7,26.94,North,360,0.0,3.0,29,0.00,,,0.00,Weather View 32 v70,2013-01-20 06:50:00,